STARLINK-32179 (60734 NORAD) Tracking and Keplerian Element Data

This shows tracking and keplerian element data for the satellite.

Feedback or suggestion? Click here.




ElementValue
Catalog60734
NameSTARLINK-32179
Epoch Orbit819
Epoch Day286.82656127
Epoch Year2024
RAAN131.0189
Inclination53.1623
Eccentricity0.0001199
Argument of Perigee61.5696
Mean Anonmoly298.5425
Mean Motion15.30192403
Decay Rate-1.653E-05
L11 60734U 24152Q 24286.82656127 -.00001653 00000+0 -43722-4 0 9991
L22 60734 53.1623 131.0189 0001199 61.5696 298.5425 15.30192403 8199



Live tracking and technical data element details for STARLINK-32179 (NORAD 60734). STARLINK-32179 can be tracked NOW for your location showing map with azimuth and elevation plus other details from your city location.







IsCatalogInMostPopularTable: catalog: 60734, numindb: 8
Update: records affected: 1



GetName: 60734 STARLINK-32179

Hit Count: updated at: Wed, 04 Dec 2024 19:37:07 GMT